Погода в Кубрани

Россия / Карачаево-Черкесская Республика     43°50′21″N   41°55′51″E
темп.,
°C
ветер,
м/с
пор.,
м/с
влажн.,
%
обл.,
%
осадки,
мм/ч
давл.,
гПа
погр.,
м
13 июня, вс
вс1300:00+9юв2297100 0.3 101520
03:00+8юв2296100 0.3 101520
06:00+10ююв129567 0.0 101571
09:00+14сз2283100 0.2 1014516
12:00+16ссз2277100 1.3 1012845
15:00+14сз1190100 3.4 1013359
18:00+12ююв1296100 4.7 1015130
21:00+10юв229563 4.8 101530
14 июня, пн
пн1400:00+8юв22940 0.0 101523
03:00+7юв22930 0.0 101528
06:00+9юв23920 0.0 101473
09:00+18ссз11555 0.0 1011717
12:00+21ссз325333 0.0 10101477
15:00+20ссз326115 0.9 10101256
18:00+17сз12880 1.4 1011169
21:00+12ююв229625 3.1 101217
15 июня, вт
вт1500:00+9юв33935 0.0 101249
03:00+9юв3494100 0.3 101162
06:00+11юв23915 0.2 101059
09:00+19сз22524 0.2 1008558
12:00+20ссз43625 0.4 1009986
15:00+20ссз436613 1.7 10101032
18:00+18ссз238119 1.2 1011494
21:00+12вюв009852 1.7 101411
16 июня, ср
ср1600:00+12ююв229446 0.1 101353
03:00+9юв22930 0.1 101433
06:00+11юв22840 0.0 101368
09:00+18ссз21671 0.0 1010803
12:00+19ссз327263 0.1 1009977
15:00+19ссз327975 0.3 1010724
18:00+17сз229273 0.3 1011359
21:00+15зсз119995 0.7 101279
17 июня, чт
чт1700:00+14ссз019983 0.6 101244
03:00+14вюв119882 0.7 101175
06:00+13юв119672 0.1 101075
09:00+19сз327351 0.1 1007839
12:00+18сз238254 0.7 1009624
15:00+18сз228239 4.4 1010718
18:00+15ссз339442 3.0 1013272
21:00+12ююз119781 3.6 101517